SBI5308 UNKL-UNNT

Flight info

Callsign SBI5308
Flight time N/A
Altitude 34000
Route APRUS B926 NATIR
Aircraft E170/M-SDE2E3FGHIRWXY/LB1

Departure

Time N/A
Airport Krasnoyarsk International Airport (UNKL)

Arrival

Time 2026-04-30 15:09
Airport Novosibirsk Tolmachevo Airport (UNNT)
Time Latitude Longitude Altitude Speed Heading
2026-04-30 14:45 55.27348 86.12635 34205 ft 443 kts 262°
2026-04-30 14:45 55.26594 86.02071 33984 ft 433 kts 271°
2026-04-30 14:46 55.26339 85.96765 33680 ft 430 kts 271°
2026-04-30 14:46 55.26095 85.91606 33421 ft 430 kts 271°
2026-04-30 14:46 55.25848 85.86374 33150 ft 431 kts 270°
2026-04-30 14:46 55.25680 85.82842 32970 ft 431 kts 270°
2026-04-30 14:47 55.25340 85.75890 32620 ft 432 kts 270°
2026-04-30 14:47 55.25082 85.70640 32350 ft 432 kts 270°
2026-04-30 14:47 55.24821 85.65406 32090 ft 432 kts 270°
2026-04-30 14:47 55.24557 85.60148 31844 ft 432 kts 269°
2026-04-30 14:48 55.24021 85.49618 31135 ft 435 kts 269°
2026-04-30 14:48 55.23841 85.46158 30778 ft 428 kts 269°
2026-04-30 14:48 55.23570 85.41008 30164 ft 419 kts 268°
2026-04-30 14:49 55.23305 85.35963 29652 ft 411 kts 268°
2026-04-30 14:49 55.23043 85.30983 29073 ft 411 kts 268°
2026-04-30 14:49 55.22780 85.26015 28552 ft 409 kts 268°
2026-04-30 14:49 55.22516 85.21067 28031 ft 406 kts 268°
2026-04-30 14:50 55.21984 85.11286 26969 ft 401 kts 268°
2026-04-30 14:50 55.21717 85.06437 26432 ft 398 kts 267°
2026-04-30 14:51 55.21184 84.96852 25399 ft 393 kts 267°
2026-04-30 14:51 55.20916 84.92109 24890 ft 390 kts 267°
2026-04-30 14:51 55.20382 84.82718 23869 ft 385 kts 266°
2026-04-30 14:52 55.20115 84.78071 23345 ft 382 kts 266°
2026-04-30 14:52 55.19471 84.68923 22372 ft 378 kts 258°
2026-04-30 14:52 55.18770 84.64501 21851 ft 378 kts 256°
2026-04-30 14:53 55.17234 84.55788 20868 ft 371 kts 255°
2026-04-30 14:53 55.16490 84.51535 20378 ft 368 kts 255°
2026-04-30 14:54 55.15012 84.43030 19404 ft 362 kts 255°
2026-04-30 14:54 55.13561 84.34671 18448 ft 357 kts 255°
2026-04-30 14:55 55.12137 84.26413 17503 ft 352 kts 255°
2026-04-30 14:55 55.11434 84.22391 17051 ft 341 kts 254°
2026-04-30 14:55 55.10080 84.14703 16169 ft 322 kts 254°
2026-04-30 14:56 55.08787 84.07394 15332 ft 308 kts 254°
2026-04-30 14:56 55.07692 84.00331 14519 ft 295 kts 263°
2026-04-30 14:57 55.07518 83.96701 14161 ft 305 kts 266°
2026-04-30 14:57 55.07163 83.89332 13320 ft 301 kts 265°
2026-04-30 14:58 55.06741 83.82150 12540 ft 298 kts 264°
2026-04-30 14:58 55.06515 83.78574 12204 ft 295 kts 264°
2026-04-30 14:58 55.06060 83.71433 11373 ft 296 kts 264°
2026-04-30 14:59 55.05608 83.64350 10577 ft 291 kts 264°
2026-04-30 15:00 55.04940 83.53971 9437 ft 279 kts 264°
2026-04-30 15:00 55.04514 83.47411 8708 ft 270 kts 264°
2026-04-30 15:01 55.04093 83.40999 7995 ft 263 kts 264°
2026-04-30 15:01 55.03886 83.37854 7654 ft 260 kts 264°
2026-04-30 15:01 55.03452 83.31526 6788 ft 263 kts 261°
2026-04-30 15:02 55.03069 83.28438 6468 ft 259 kts 256°
2026-04-30 15:02 55.02620 83.25401 6149 ft 257 kts 256°
2026-04-30 15:03 55.01373 83.16355 5223 ft 256 kts 257°
2026-04-30 15:03 55.00571 83.10309 4618 ft 256 kts 257°
2026-04-30 15:04 54.99772 83.04243 3909 ft 254 kts 256°
2026-04-30 15:04 54.99025 82.95837 3041 ft 232 kts 287°
2026-04-30 15:05 55.02190 82.89657 2194 ft 222 kts 314°
2026-04-30 15:06 55.03254 82.85423 1939 ft 177 kts 258°
2026-04-30 15:06 55.02688 82.81425 1963 ft 177 kts 261°
2026-04-30 15:07 55.02350 82.77364 1481 ft 161 kts 258°
2026-04-30 15:07 55.02036 82.73792 995 ft 141 kts 260°
2026-04-30 15:08 55.01744 82.70524 725 ft 142 kts 260°
2026-04-30 15:08 55.01323 82.65948 371 ft 73 kts 261°
2026-04-30 15:09 55.01237 82.65087 371 ft 16 kts 225°
2026-04-30 15:09 55.01026 82.65099 371 ft 13 kts 172°
2026-04-30 15:10 55.00890 82.65154 371 ft 9 kts 127°
2026-04-30 15:11 55.00886 82.65303 371 ft 12 kts 84°
2026-04-30 15:11 55.00918 82.65670 371 ft 18 kts 80°
2026-04-30 15:12 55.00973 82.66155 371 ft 6 kts 76°
2026-04-30 15:13 55.00929 82.66203 371 ft 2 kts 170°